CW7977 Corfu GR current weather conditions

sailwx.info

Wind from 202 at 0 knots gusting 1

Air temperature 22.8° C
Dewpoint 21.2° C

Last reported at 2014-Aug-22 03:47 UTC.
Time now 2014-Aug-22 06:00 UTC

Location: N 39°37' E 019°54'.
View on Google Maps.

See reports from other nearby stations

  
Tides and Currents Weather Stations Pressure Air Temp Water Temp Dewpoint Dewpoint Depression Visibility Wind Speed Wind Dir Waves Ship Positions
date/time (UTC)wind fromknots sea level pressurealtimeterstation pressurevisibilityair tempwater tempwave heightnotes
2014-Aug-22 04:47 180 22.8
2014-Aug-22 04:37 246 0 gusting 2 22.2
2014-Aug-22 04:27 220 1 gusting 2 22.2
2014-Aug-22 04:17 185 22.2
2014-Aug-22 04:07 202 22.2
2014-Aug-22 03:57 219 22.8
2014-Aug-22 03:47 202 0 gusting 1 22.8
2014-Aug-22 03:37 202 22.8
2014-Aug-22 03:27 202 22.8
2014-Aug-22 03:17 270 22.8
2014-Aug-22 03:07 270 22.8
2014-Aug-22 02:57 270 22.8
2014-Aug-22 02:47 292 0 gusting 1 22.8
2014-Aug-22 02:37 315 23.3
2014-Aug-22 02:27 336 23.3
2014-Aug-22 02:17 180 23.3
2014-Aug-22 02:07 180 23.3
2014-Aug-22 01:57 180 23.3
2014-Aug-22 01:47 180 23.3
2014-Aug-22 01:37 180 23.3
2014-Aug-22 01:27 180 22.8
2014-Aug-22 01:17 180 22.8
2014-Aug-22 01:07 180 23.3
2014-Aug-22 00:57 180 23.3
2014-Aug-22 00:47 180 0 gusting 4 23.3
2014-Aug-22 00:37 158 0 gusting 1 23.3
2014-Aug-22 00:27 135 23.3
2014-Aug-22 00:17 135 23.3
2014-Aug-22 00:07 180 23.3
2014-Aug-21 23:57 180 23.3
2014-Aug-21 23:47 180 23.3
2014-Aug-21 23:37 180 23.3
2014-Aug-21 23:27 180 23.3
2014-Aug-21 23:17 180 23.3
2014-Aug-21 23:07 212 23.3
2014-Aug-21 22:57 241 0 gusting 2 23.3
2014-Aug-21 22:47 203 0 gusting 2 23.3
2014-Aug-21 22:37 180 0 gusting 5 23.9
2014-Aug-21 22:27 225 23.9
2014-Aug-21 22:17 285 23.9
2014-Aug-21 22:07 225 23.9
2014-Aug-21 21:57 209 23.9
2014-Aug-21 21:47 292 23.9
2014-Aug-21 21:37 315 0 gusting 1 23.9
2014-Aug-21 21:27 315 0 gusting 2 24.4
2014-Aug-21 21:17 292 24.4
2014-Aug-21 21:07 292 1 gusting 2 24.4
2014-Aug-21 20:57 158 25.0
2014-Aug-21 20:47 150 25.0
2014-Aug-21 20:37 158 25.0
2014-Aug-21 20:27 141 0 gusting 1 25.0
2014-Aug-21 20:17 158 25.0
2014-Aug-21 20:07 150 25.0
2014-Aug-21 19:57 110 25.0
2014-Aug-21 19:47 132 3 gusting 6 25.0
2014-Aug-21 19:37 132 1 gusting 5 25.0
2014-Aug-21 19:27 225 25.0
2014-Aug-21 19:17 225 25.6
2014-Aug-21 19:07 270 25.6
2014-Aug-21 18:57 202 25.6
2014-Aug-21 18:47 202 25.6
2014-Aug-21 18:37 225 25.6
2014-Aug-21 18:27 271 0 gusting 2 25.6
2014-Aug-21 18:17 271 0 gusting 2 25.6
2014-Aug-21 18:07 296 0 gusting 2 25.6
2014-Aug-21 17:57 311 1 gusting 5 26.1
2014-Aug-21 17:47 325 1 gusting 4 26.1
2014-Aug-21 17:37 322 0 gusting 2 26.7
2014-Aug-21 17:27 316 0 gusting 5 26.7
2014-Aug-21 17:17 300 0 gusting 2 27.2
2014-Aug-21 17:07 006 0 gusting 6 27.2
2014-Aug-21 16:57 158 27.8
2014-Aug-21 16:47 156 0 gusting 2 27.8
2014-Aug-21 16:37 135 1 gusting 4 27.8
2014-Aug-21 16:27 142 1 gusting 6 27.8
2014-Aug-21 16:17 143 2 gusting 5 28.3
2014-Aug-21 16:07 125 2 gusting 6 28.9
2014-Aug-21 15:57 139 4 gusting 6 29.4
2014-Aug-21 15:47 164 3 gusting 6 29.4
2014-Aug-21 15:37 136 2 gusting 5 30.0
2014-Aug-21 15:27 152 1 gusting 5 30.6
2014-Aug-21 15:17 135 2 gusting 4 31.1
2014-Aug-21 15:07 284 0 gusting 6 31.1
2014-Aug-21 14:57 076 1 gusting 4 31.1
2014-Aug-21 14:47 216 1 gusting 2 31.1
2014-Aug-21 14:37 187 31.1
2014-Aug-21 14:27 156 1 gusting 6 30.6
2014-Aug-21 14:17 284 3 gusting 7 30.6
2014-Aug-21 14:07 255 4 gusting 8 30.6
2014-Aug-21 13:57 227 5 gusting 7 30.0
2014-Aug-21 13:47 044 4 gusting 6 30.0
2014-Aug-21 13:37 041 2 gusting 6 29.4
2014-Aug-21 13:27 041 1 gusting 7 29.4
2014-Aug-21 13:17 019 4 gusting 11 28.9
2014-Aug-21 13:07 029 4 gusting 7 29.4
2014-Aug-21 12:57 125 28.9
2014-Aug-21 12:47 225 0 gusting 4 28.9
2014-Aug-21 12:37 273 4 gusting 7 29.4
2014-Aug-21 12:27 212 5 gusting 12 29.4
2014-Aug-21 12:17 244 2 gusting 7 30.0
2014-Aug-21 12:07 248 4 gusting 10 30.6
2014-Aug-21 11:57 231 5 gusting 8 30.6
2014-Aug-21 11:47 230 4 gusting 8 30.0
2014-Aug-21 11:37 272 0 gusting 6 28.9
2014-Aug-21 11:27 005 2 gusting 6 28.9
2014-Aug-21 11:17 345 6 gusting 7 29.4
2014-Aug-21 11:07 311 2 gusting 6 30.0
2014-Aug-21 10:57 225 1 gusting 6 30.0
2014-Aug-21 10:47 238 2 gusting 6 29.4
2014-Aug-21 10:27 131 5 gusting 6 28.9
2014-Aug-21 10:17 153 1 gusting 6 28.3
2014-Aug-21 10:07 167 2 gusting 6 28.3
2014-Aug-21 09:57 212 1 gusting 6 27.8
2014-Aug-21 09:47 152 4 gusting 6 27.8
2014-Aug-21 09:37 138 4 gusting 7 27.2
2014-Aug-21 09:27 150 6 gusting 7 27.2
2014-Aug-21 09:17 132 6 gusting 7 26.7
2014-Aug-21 09:07 116 1 gusting 6 26.7
2014-Aug-21 08:57 146 4 gusting 6 26.7
2014-Aug-21 08:47 136 3 gusting 6 26.7
2014-Aug-21 08:37 146 2 gusting 7 26.1
2014-Aug-21 08:27 117 5 gusting 6 26.1
2014-Aug-21 08:17 130 4 gusting 6 26.1
2014-Aug-21 08:07 105 5 gusting 6 26.1
2014-Aug-21 07:57 147 1 gusting 6 26.1
2014-Aug-21 07:47 134 5 gusting 6 26.1
2014-Aug-21 07:37 119 2 gusting 4 25.6
2014-Aug-21 07:27 135 0 gusting 4 25.6
2014-Aug-21 07:17 188 25.0
2014-Aug-21 07:07 153 0 gusting 4 25.0
2014-Aug-21 06:57 225 0 gusting 4 24.4
2014-Aug-21 06:47 166 1 gusting 4 24.4
2014-Aug-21 06:37 148 1 gusting 2 24.4
2014-Aug-21 06:27 135 1 gusting 6 23.9
2014-Aug-21 06:17 113 1 gusting 6 23.9
2014-Aug-21 06:07 072 2 gusting 6 23.3
2014-Aug-21 05:57 022 0 gusting 2 23.3
2014-Aug-21 05:47 022 0 gusting 4 23.3
2014-Aug-21 05:37 034 0 gusting 0 22.8
2014-Aug-21 05:27 225 0 gusting 2 22.8
2014-Aug-21 05:17 210 0 gusting 1 22.8
2014-Aug-21 05:07 225 22.8
2014-Aug-21 04:57 260 22.8
2014-Aug-21 04:47 284 22.2
2014-Aug-21 04:37 292 0 gusting 2 22.2
2014-Aug-21 04:27 292 0 gusting 1 22.2
2014-Aug-21 04:17 297 22.8
2014-Aug-21 04:07 248 22.8
2014-Aug-21 03:57 249 0 gusting 2 22.8
2014-Aug-21 03:47 242 0 gusting 5 22.8
2014-Aug-21 03:37 076 1 gusting 6 22.8
2014-Aug-21 03:27 094 1 gusting 6 22.8
2014-Aug-21 03:17 135 2 gusting 5 22.2
2014-Aug-21 03:07 045 22.2
2014-Aug-21 02:57 338 22.2
2014-Aug-21 02:47 349 0 gusting 2 22.2
2014-Aug-21 02:37 034 22.2
2014-Aug-21 02:27 338 22.2
2014-Aug-21 02:17 318 2 gusting 6 22.2
2014-Aug-21 02:07 314 0 gusting 1 22.8
2014-Aug-21 01:57 292 0 gusting 1 22.8
2014-Aug-21 01:47 248 22.8
2014-Aug-21 01:37 292 22.8
2014-Aug-21 01:27 292 22.8
2014-Aug-21 01:17 292 22.2
2014-Aug-21 01:07 180 22.8
2014-Aug-21 00:57 202 22.8
2014-Aug-21 00:47 141 22.8
2014-Aug-21 00:37 178 22.8
2014-Aug-21 00:27 180 22.8
2014-Aug-21 00:17 180 22.8
2014-Aug-21 00:07 234 0 gusting 1 22.8
2014-Aug-20 23:57 248 0 gusting 1 22.8
2014-Aug-20 23:47 247 22.8
2014-Aug-20 23:37 202 22.8
2014-Aug-20 23:27 202 22.8
2014-Aug-20 23:17 202 22.8
2014-Aug-20 23:07 225 22.8
2014-Aug-20 22:57 248 23.3
2014-Aug-20 22:47 204 23.3
2014-Aug-20 22:37 202 23.3
2014-Aug-20 22:27 202 23.3
2014-Aug-20 22:17 215 23.3
2014-Aug-20 22:07 270 23.3
2014-Aug-20 21:57 270 23.3
2014-Aug-20 21:47 315 23.3
2014-Aug-20 21:37 316 0 gusting 1 23.3
2014-Aug-20 21:27 333 23.3
2014-Aug-20 21:17 338 1 gusting 4 23.9
2014-Aug-20 21:07 315 23.9
2014-Aug-20 20:57 315 0 gusting 1 23.9
2014-Aug-20 20:47 231 23.9
2014-Aug-20 20:37 225 0 gusting 1 23.9
2014-Aug-20 20:27 229 0 gusting 1 24.4
2014-Aug-20 20:17 192 0 gusting 1 24.4
2014-Aug-20 20:07 202 24.4
2014-Aug-20 19:57 202 24.4
2014-Aug-20 19:47 158 24.4
2014-Aug-20 19:37 158 24.4
2014-Aug-20 19:27 180 24.4
2014-Aug-20 19:17 225 0 gusting 1 24.4
2014-Aug-20 19:07 183 24.4
2014-Aug-20 18:57 191 0 gusting 1 24.4
2014-Aug-20 18:47 292 24.4
2014-Aug-20 18:37 304 0 gusting 2 25.0
2014-Aug-20 18:27 327 1 gusting 4 25.0
2014-Aug-20 18:17 320 1 gusting 4 25.0
2014-Aug-20 18:07 289 2 gusting 6 25.6
2014-Aug-20 17:57 322 1 gusting 4 25.6
2014-Aug-20 17:47 292 3 gusting 6 26.1
2014-Aug-20 17:37 263 1 gusting 5 26.1
2014-Aug-20 17:27 190 26.1
2014-Aug-20 17:17 196 1 gusting 4 26.7
2014-Aug-20 17:07 225 1 gusting 4 27.2
2014-Aug-20 16:57 240 0 gusting 5 27.8
2014-Aug-20 16:47 232 0 gusting 5 27.8
2014-Aug-20 16:37 183 0 gusting 5 28.3
2014-Aug-20 16:27 235 0 gusting 6 28.3
2014-Aug-20 16:17 283 2 gusting 6 28.9
2014-Aug-20 16:07 268 3 gusting 6 29.4
2014-Aug-20 15:57 277 1 gusting 4 29.4
2014-Aug-20 15:47 243 0 gusting 6 30.0
2014-Aug-20 15:37 287 2 gusting 6 30.0
2014-Aug-20 15:27 233 0 gusting 5 30.0
2014-Aug-20 15:17 279 1 gusting 6 30.0
2014-Aug-20 15:07 327 2 gusting 6 30.6
2014-Aug-20 14:57 259 3 gusting 10 30.6
2014-Aug-20 14:47 291 4 gusting 6 30.6
2014-Aug-20 14:27 186 0 gusting 6 30.6
2014-Aug-20 14:17 169 4 gusting 6 30.6
2014-Aug-20 14:07 220 1 gusting 6 30.6
2014-Aug-20 13:57 316 2 gusting 6 30.6
2014-Aug-20 13:47 288 0 gusting 12 30.0
2014-Aug-20 13:37 075 1 gusting 4 29.4
2014-Aug-20 13:27 121 2 gusting 6 29.4
2014-Aug-20 13:17 139 0 gusting 6 29.4
2014-Aug-20 13:07 109 0 gusting 6 29.4
2014-Aug-20 12:57 090 1 gusting 6 29.4
2014-Aug-20 12:47 135 4 gusting 6 29.4
2014-Aug-20 12:37 083 4 gusting 6 29.4
2014-Aug-20 12:27 053 2 gusting 6 29.4
2014-Aug-20 12:17 108 2 gusting 6 28.9
2014-Aug-20 12:07 136 2 gusting 5 28.3
2014-Aug-20 11:57 115 1 gusting 7 27.8
2014-Aug-20 11:37 138 2 gusting 7 27.2
2014-Aug-20 11:27 126 3 gusting 6 27.2
2014-Aug-20 11:17 136 2 gusting 6 26.7
2014-Aug-20 11:07 141 4 gusting 6 26.7
2014-Aug-20 10:57 135 6 gusting 6 26.7
2014-Aug-20 10:47 132 4 gusting 6 26.1
2014-Aug-20 10:37 140 6 gusting 8 26.1
2014-Aug-20 10:27 127 6 gusting 7 26.7
2014-Aug-20 10:17 120 6 gusting 6 26.7
2014-Aug-20 10:07 160 4 gusting 6 26.7
2014-Aug-20 09:57 146 3 gusting 6 26.7
2014-Aug-20 09:47 136 2 gusting 6 26.1
2014-Aug-20 09:37 149 1 gusting 6 26.1
2014-Aug-20 09:27 102 2 gusting 8 25.6
2014-Aug-20 09:17 135 5 gusting 7 25.6
2014-Aug-20 09:07 135 3 gusting 6 25.6
2014-Aug-20 08:57 138 3 gusting 6 25.6
2014-Aug-20 08:47 135 4 gusting 7 25.0
2014-Aug-20 08:37 145 5 gusting 7 25.0
2014-Aug-20 08:27 148 3 gusting 6 25.0
2014-Aug-20 08:17 135 2 gusting 6 25.0
2014-Aug-20 08:07 121 3 gusting 6 24.4
2014-Aug-20 07:57 133 3 gusting 6 24.4
2014-Aug-20 07:47 117 3 gusting 6 24.4
2014-Aug-20 07:37 149 2 gusting 6 23.9
2014-Aug-20 07:27 137 5 gusting 6 23.9
2014-Aug-20 07:17 147 3 gusting 6 23.9
2014-Aug-20 07:07 147 3 gusting 6 23.3
2014-Aug-20 06:57 116 2 gusting 6 23.3
2014-Aug-20 06:47 134 3 gusting 6 23.3
2014-Aug-20 06:37 135 2 gusting 6 23.3
2014-Aug-20 06:27 132 2 gusting 6 22.8
2014-Aug-20 06:17 138 4 gusting 6 22.8
2014-Aug-20 06:07 137 3 gusting 6 22.2